Regional Weather Roundup
Issued by NWS

Home | Current Version | Previous Version | Graphics & Text | Print | Product List | Glossary On
Versions: 1 2 3 4 5 6 7 8 9 10 11 12 13 14 15 16 17 18 19 20 21 22 23 24 25 26 27 28 29 30 31 32 33 34 35 36 37 38 39 40 41 42 43 44 45 46 47 48 49 50
000
ASUS43 KOAX 300010
RWRNE

WEATHER ROUNDUP FOR NEBRASKA
NATIONAL WEATHER SERVICE OMAHA NE
700 PM CDT SAT AUG 29 2015

NOTES: SATELLITE DATA IS BEING USED TO AUGMENT CLOUD COVER ABOVE
       12000 FEET.
       "FAIR" INDICATES FEW OR NO CLOUDS BELOW 12,000 FEET WITH NO
       SIGNIFICANT WEATHER AND/OR OBSTRUCTIONS TO VISIBILITY.

  * THESE STATIONS DO NOT REPORT WEATHER SUCH AS RAIN...SNOW OR FOG.

NEZ001>004-019>022-054>056-300100-
NEBRASKA PANHANDLE

CITY           SKY/WX    TMP DP  RH WIND       PRES   REMARKS
SCOTTSBLUFF    SUNNY     88  42  20 SE13      30.02F HAZE
6HR MIN TEMP:  83; 6HR MAX TEMP:  94;

ALLIANCE       SUNNY     89  36  15 S12       30.04F
6HR MIN TEMP:  89; 6HR MAX TEMP:  93;

CHADRON        SUNNY     92  44  19 S14       29.95F HAZE
6HR MIN TEMP:  92; 6HR MAX TEMP:  97;

KIMBALL        SUNNY     84  39  20 S7        30.10S
SIDNEY         SUNNY     89  38  16 SE15      30.09F
6HR MIN TEMP:  88; 6HR MAX TEMP:  93;

$$

NEZ057>060-069>072-079>082-300100-
SOUTHWEST NEBRASKA

CITY           SKY/WX    TMP DP  RH WIND       PRES   REMARKS
NORTH PLATTE   SUNNY     80  66  62 SE9       30.03F
6HR MIN TEMP:  80; 6HR MAX TEMP:  90;

IMPERIAL       SUNNY     88  48  25 SE9       30.05F
6HR MIN TEMP:  87; 6HR MAX TEMP:  94;

LEXINGTON      MOSUNNY   81  64  57 SE9       30.05S
MCCOOK         MOSUNNY   86  57  37 E10       30.04S
6HR MIN TEMP:  86; 6HR MAX TEMP:  92;

OGALLALA       SUNNY     88  50  26 SE8       30.04F
$$

NEZ005>010-023>029-035>040-094-300100-
NORTH CENTRAL NEBRASKA

CITY           SKY/WX    TMP DP  RH WIND       PRES   REMARKS
VALENTINE      SUNNY     89  53  29 S10       29.97F
6HR MIN TEMP:  83; 6HR MAX TEMP:  93;

AINSWORTH      SUNNY     83  63  49 S6        30.00F
BROKEN BOW     SUNNY     82  64  54 SE6       30.03F
6HR MIN TEMP:  81; 6HR MAX TEMP:  87;

O`NEILL        SUNNY     81  65  59 S6        30.00F
ORD            SUNNY     82  55  39 S9        30.01S
6HR MIN TEMP:  81; 6HR MAX TEMP:  87;

THEDFORD       SUNNY     87  57  35 S9        30.03S
$$

NEZ041-046>049-061>064-073>077-083>087-300100-
SOUTH CENTRAL NEBRASKA

CITY           SKY/WX    TMP DP  RH WIND       PRES   REMARKS
GRAND ISLAND   SUNNY     78  63  59 SE5       30.04F
6HR MIN TEMP:  77; 6HR MAX TEMP:  82;

AURORA         SUNNY     74  68  80 SE3       30.04S
HASTINGS       MOSUNNY   78  62  57 E6        30.04F
6HR MIN TEMP:  75; 6HR MAX TEMP:  82;

HEBRON         MOSUNNY   76  63  62 NE3       30.03S
HOLDREGE       SUNNY     79  62  55 SE6       30.05S
KEARNEY *      SUNNY     79  63  57 SE6       30.04F
YORK           MOSUNNY   73  66  78 E5        30.04S
$$

NEZ011>018-030>034-042>045-300100-
NORTHEAST NEBRASKA

CITY           SKY/WX    TMP DP  RH WIND       PRES   REMARKS
NORFOLK        SUNNY     75  66  73 SE6       30.02F
6HR MIN TEMP:  73; 6HR MAX TEMP:  79;

ALBION         SUNNY     76  67  73 SE5       30.03S
BLAIR          MOSUNNY   69  62  81 CALM      30.04S
COLUMBUS *     SUNNY    N/A N/A N/A E3        30.03S
FREMONT        MOSUNNY   68  62  82 SE6       30.05R
TEKAMAH        MOSUNNY   69  64  84 S3        30.03F
6HR MIN TEMP:  65; 6HR MAX TEMP:  70;

WAYNE          SUNNY     73  67  81 SE6       30.02F
$$

NEZ050>053-065>068-078-088>093-300100-
SOUTHEAST NEBRASKA

CITY           SKY/WX    TMP DP  RH WIND       PRES   REMARKS
LINCOLN        MOSUNNY   70  62  76 E6        30.04F
6HR MIN TEMP:  66; 6HR MAX TEMP:  74;

OMAHA EPPLEY   CLOUDY    72  64  76 N3        30.03S
6HR MIN TEMP:  65; 6HR MAX TEMP:  73;

BEATRICE       SUNNY     68  62  82 E6        30.04R
FALLS CITY     CLOUDY    67  62  84 N3        30.03F
6HR MIN TEMP:  67; 6HR MAX TEMP:  70;

NEBRASKA CITY  PTSUNNY   67  63  88 CALM      30.04S
PLATTSMOUTH    MOSUNNY   68  62  80 CALM      30.04S
$$

NEZ044-045-051>053-067-300100-
OMAHA AREA

CITY           SKY/WX    TMP DP  RH WIND       PRES   REMARKS
OMAHA EPPLEY   CLOUDY    72  64  76 N3        30.03S
6HR MIN TEMP:  65; 6HR MAX TEMP:  73;

BLAIR          MOSUNNY   69  62  81 CALM      30.04S
FREMONT        MOSUNNY   68  62  82 SE6       30.05R
MILLARD        MOSUNNY   70  63  79 S3        30.03F
OFFUTT AFB     MOSUNNY   69  63  79 S1        30.02F
PLATTSMOUTH    MOSUNNY   68  62  80 CALM      30.04S
WAHOO          FAIR      69  64  84 E6        30.04S
$$



USA.gov is the U.S. government's official web portal to all federal, state and local government web resources and services.